[[{"header":{"parameterUnit":"m.s-1","parameterCategory":2,"la1":30.2991,"la2":30.254,"lo1":-89.0895,"lo2":-89.0444,"dy":0.0017,"dx":0.0017,"nx":28,"ny":28,"refTime":"2023-06-26T21:00:00:Z","depth":"0","parameterNumber":2,"parameterNumberName":"U-component_of_CURRENTS"},"data":[0,0,0,0,0,0,0,0,0,0,0,0,0,0,0,0,0,0,0,0,0,0,0,0,0,0,0,0,0,0,0,0,0,0,0,0,0,0,0,0,0,0,0,0,0,0,0,0,0,0,0,0,0,0,0,0,0,0,0.1171,0.1174,0,0.1351,0.1352,0.1353,0.134,0.1339,0.1337,0.1336,0.1456,0.146,0.1465,0,0,0,0,0,0,0,0,0,0,0,0,0,0.0943,0.0945,0.1171,0.1174,0.1178,0.1351,0.1352,0.1353,0.134,0.1339,0.1337,0.1335,0.1454,0.146,0.1465,0,0,0,0,0,0,0,0,0,0,0,0,0,0.1061,0.0946,0.117,0.1202,0.1208,0.1351,0.1352,0.1354,0.1341,0.1339,0.1336,0.1334,0.1453,0.1459,0.1466,0.1551,0,0,0.1487,0.149,0,0,0,0,0,0,0,0,0.1054,0.1067,0.1194,0.12,0.1207,0.1333,0.1317,0.1422,0.1341,0.1276,0.1336,0.1333,0.142,0.1429,0.1449,0.1557,0.1562,0.1487,0.1491,0.1494,0.1496,0,0,0,0,0,0,0,0.1046,0.1061,0.1228,0.1198,0.1206,0.1253,0.1264,0.1336,0.1346,0.1281,0.1284,0.1327,0.142,0.1443,0.1452,0.1563,0.1487,0.1493,0.1497,0.15,0.1707,0.1708,0,0,0,0,0,0,0.1047,0.1053,0.1223,0.1235,0.1139,0.1259,0.1271,0.1284,0.1347,0.1359,0.1329,0.1326,0.1432,0.1444,0.1456,0.1588,0.1494,0.1501,0.1504,0.1706,0.1707,0.1709,0,0,0,0,0,0,0.1041,0.1059,0.1216,0.116,0.1185,0.1265,0.1279,0.1289,0.1315,0.1386,0.1393,0.1347,0.1431,0.1447,0.1503,0.1591,0.1504,0.151,0.1704,0.1706,0.1708,0.1834,0,0,0,0,0,0,0.1033,0.1055,0.1052,0.116,0.1189,0.1313,0.1283,0.1294,0.1351,0.1349,0.1405,0.1413,0.143,0.1492,0.1509,0.1599,0.1515,0.1702,0.1705,0.1707,0.1828,0.184,0.1851,0,0,0,0,0,0.1023,0.1054,0.1049,0.1071,0.1184,0.1317,0.1336,0.1377,0.1354,0.1385,0.1394,0.1412,0.1521,0.1499,0.1519,0.1613,0.1701,0.1704,0.1707,0.1823,0.1838,0.185,0,0,0,0,0,0,0.0976,0.106,0.1056,0.1112,0.1207,0.132,0.1368,0.1388,0.1422,0.1417,0.1435,0.1446,0.1535,0.1539,0.1514,0.1671,0.1615,0.1622,0.1696,0.171,0.1721,0.1685,0.1521,0,0,0,0,0,0.096,0.0988,0.1093,0.1143,0.119,0.1271,0.1325,0.1367,0.1428,0.144,0.1467,0.1501,0.1569,0.1604,0.1654,0.1746,0.1761,0.1812,0.1823,0.1833,0.1812,0.1894,0.1912,0.1719,0.1719,0.1719,0,0,0.0984,0.1014,0.1047,0.1133,0.1204,0.1301,0.1295,0.1407,0.1482,0.1454,0.1526,0.1551,0.1597,0.1695,0.1736,0.1709,0.1906,0.1837,0.1846,0.1818,0.1899,0.1918,0.1935,0.1722,0.1721,0.1721,0,0,0.1076,0.1048,0.1128,0.1182,0.1294,0.1339,0.1372,0.148,0.1513,0.1596,0.1599,0.1636,0.1736,0.1776,0.1815,0.1912,0.1963,0.1959,0.2002,0.2085,0.2102,0.2116,0.221,0.2232,0.1966,0.1967,0.1967,0,0.1119,0.1174,0.1183,0.1263,0.1315,0.1355,0.1465,0.1524,0.1627,0.1665,0.1626,0.1745,0.1769,0.1902,0.1921,0.1943,0.2005,0.196,0.2103,0.2117,0.213,0.2222,0.2245,0.1973,0.1972,0.1972,0.1971,0,0.1262,0.1302,0.1358,0.1436,0.1489,0.159,0.1666,0.1722,0.1736,0.1782,0.1883,0.1892,0.1953,0.199,0.1985,0.2117,0.214,0.2114,0.2075,0.2158,0.2249,0.2271,0.1982,0.198,0.1978,0.1977,0,0,0.1386,0.1458,0.147,0.1502,0.1573,0.1643,0.1752,0.1867,0.193,0.198,0.2058,0.2132,0.2108,0.2142,0.2161,0.2206,0.2354,0.2203,0.2204,0.2307,0.2578,0.267,0.2702,0.2384,0.2387,0.239,0.2625,0,0.1513,0.1638,0.1649,0.1769,0.1829,0.1855,0.1937,0.2021,0.2064,0.2134,0.2162,0.223,0.2189,0.2217,0.2268,0.2328,0.2409,0.2294,0.2468,0.2473,0.2555,0.2729,0.2835,0.306,0.2645,0.2649,0.2651,0,0.1636,0.1676,0.1802,0.1869,0.1907,0.1977,0.2056,0.2153,0.2251,0.2283,0.2342,0.2356,0.2444,0.2365,0.2531,0.2478,0.2535,0.2561,0.2572,0.2614,0.2604,0.2898,0.3114,0.3103,0.2684,0.2681,0.2679,0,0.1635,0.1779,0.1849,0.1871,0.1968,0.2031,0.2095,0.2185,0.2256,0.237,0.2411,0.2512,0.2563,0.2642,0.2704,0.2645,0.2875,0.2804,0.295,0.2957,0.3052,0.3062,0.3278,0.2926,0.2925,0.2924,0.2924,0,0.1709,0.1766,0.1848,0.1874,0.1952,0.2025,0.2125,0.2207,0.2314,0.2391,0.2475,0.2557,0.2632,0.2763,0.2794,0.2979,0.2976,0.2999,0.3041,0.3104,0.3116,0.3105,0.3043,0.2933,0.2931,0.293,0.2928,0,0.1691,0.1753,0.1817,0.1914,0.1943,0.1985,0.2113,0.2192,0.2308,0.2413,0.2454,0.2631,0.2832,0.2937,0.3089,0.3125,0.3233,0.3311,0.3389,0.3435,0.3525,0.3465,0.345,0.3363,0.352,0.3524,0.3528,0,0.17,0.1728,0.1796,0.1816,0.1861,0.194,0.2001,0.2144,0.223,0.2453,0.251,0.2753,0.2924,0.3246,0.3401,0.3591,0.3415,0.375,0.3625,0.3598,0.3562,0.3277,0.3179,0.3823,0.3828,0.3833,0.3836,0,0.1693,0.1702,0.1749,0.1767,0.182,0.1887,0.1999,0.2058,0.2241,0.2373,0.2586,0.2754,0.3144,0.3432,0.3721,0.3826,0.3665,0.3846,0.3815,0.383,0.3538,0.3454,0.3586,0.3876,0.3872,0.3869,0.3867,0.3865,0.1668,0.168,0.1722,0.1742,0.1783,0.1838,0.1893,0.2036,0.218,0.2381,0.2573,0.2845,0.3314,0.3773,0.3944,0.4243,0.3936,0.4203,0.4144,0.3862,0.3739,0.3964,0.4285,0.4283,0.4282,0.428,0.4279,0,0.1649,0.1678,0.1702,0.173,0.1744,0.1784,0.1896,0.196,0.2111,0.2337,0.2545,0.3024,0.3513,0.3919,0.4372,0.4475,0.4301,0.4474,0.4124,0.4016,0.4298,0.4277,0.4618,0.4618,0.4618,0.4617,0.4617,0.4617,0.1649,0.1668,0.1682,0.1684,0.1698,0.173,0.1777,0.1881,0.2038,0.2304,0.2553,0.2782,0.3284,0.4019,0.4462,0.455,0.4296,0.4314,0.4099,0.4387,0.4354,0.4323,0.4292,0.463,0.4629,0.3735,0.373,0.3725]},{"header":{"parameterUnit":"m.s-1","parameterCategory":2,"la1":30.2991,"la2":30.254,"lo1":-89.0895,"lo2":-89.0444,"dy":0.0017,"dx":0.0017,"nx":28,"ny":28,"refTime":"2023-06-26T21:00:00:Z","depth":"0","parameterNumber":3,"parameterNumberName":"V-component_of_CURRENTS"},"data":[0,0,0,0,0,0,0,0,0,0,0,0,0,0,0,0,0,0,0,0,0,0,0,0,0,0,0,0,0,0,0,0,0,0,0,0,0,0,0,0,0,0,0,0,0,0,0,0,0,0,0,0,0,0,0,0,0,0,-0.0182,-0.0182,0,-0.017,-0.0171,-0.0171,-0.0234,-0.0235,-0.0237,-0.0238,-0.0313,-0.0314,-0.0315,0,0,0,0,0,0,0,0,0,0,0,0,0,-0.0152,-0.0154,-0.0182,-0.0181,-0.0181,-0.017,-0.0171,-0.0171,-0.0234,-0.0236,-0.0237,-0.0239,-0.0313,-0.0314,-0.0315,0,0,0,0,0,0,0,0,0,0,0,0,0,-0.0161,-0.0154,-0.0182,-0.0207,-0.0208,-0.017,-0.0171,-0.0171,-0.0234,-0.0236,-0.0238,-0.0239,-0.0313,-0.0314,-0.0315,-0.0284,0,0,-0.0319,-0.0319,0,0,0,0,0,0,0,0,-0.0161,-0.0163,-0.0204,-0.0205,-0.0207,-0.0201,-0.0187,-0.0211,-0.0233,-0.023,-0.0238,-0.024,-0.0278,-0.0282,-0.0283,-0.0287,-0.0291,-0.0319,-0.0319,-0.032,-0.032,0,0,0,0,0,0,0,-0.016,-0.0163,-0.0183,-0.0203,-0.0204,-0.0181,-0.0186,-0.0192,-0.025,-0.0231,-0.0234,-0.0222,-0.0281,-0.0282,-0.0285,-0.0292,-0.0319,-0.032,-0.0321,-0.0321,-0.0299,-0.0298,0,0,0,0,0,0,-0.0154,-0.0163,-0.0184,-0.0182,-0.0181,-0.018,-0.0186,-0.0205,-0.0248,-0.0254,-0.0221,-0.0225,-0.0279,-0.0284,-0.0288,-0.0292,-0.032,-0.0321,-0.0322,-0.03,-0.0299,-0.0297,0,0,0,0,0,0,-0.0154,-0.0157,-0.0184,-0.0166,-0.0167,-0.0179,-0.02,-0.0204,-0.0212,-0.0238,-0.0248,-0.0225,-0.028,-0.0287,-0.0316,-0.0294,-0.0322,-0.0323,-0.0302,-0.03,-0.0298,-0.0275,0,0,0,0,0,0,-0.0153,-0.0158,-0.0175,-0.0167,-0.0168,-0.0149,-0.0197,-0.0202,-0.0199,-0.0205,-0.0244,-0.0253,-0.0282,-0.0314,-0.0317,-0.0297,-0.0324,-0.0304,-0.0301,-0.0299,-0.0278,-0.0273,-0.0269,0,0,0,0,0,-0.0153,-0.0158,-0.0177,-0.0179,-0.0191,-0.0146,-0.0145,-0.0162,-0.0197,-0.0183,-0.0237,-0.0253,-0.03,-0.0315,-0.0319,-0.0298,-0.0305,-0.0302,-0.0299,-0.028,-0.0274,-0.0269,0,0,0,0,0,0,-0.0149,-0.0164,-0.0185,-0.0196,-0.0168,-0.0155,-0.014,-0.0156,-0.0185,-0.02,-0.0251,-0.0262,-0.0282,-0.0284,-0.0299,-0.028,-0.0297,-0.0295,-0.0281,-0.0276,-0.0271,-0.0254,-0.0325,0,0,0,0,0,-0.0156,-0.017,-0.016,-0.0163,-0.0149,-0.0147,-0.0136,-0.0139,-0.0154,-0.0168,-0.0205,-0.0237,-0.0266,-0.027,-0.0293,-0.0279,-0.0299,-0.026,-0.0255,-0.0251,-0.0237,-0.0274,-0.0273,-0.0288,-0.0288,-0.0288,0,0,-0.0151,-0.016,-0.0169,-0.0163,-0.0149,-0.012,-0.0147,-0.0112,-0.011,-0.017,-0.0196,-0.0232,-0.0264,-0.0269,-0.0271,-0.0269,-0.0255,-0.0248,-0.0245,-0.0232,-0.0271,-0.027,-0.0269,-0.0286,-0.0286,-0.0286,0,0,-0.0125,-0.0156,-0.015,-0.0123,-0.0091,-0.0089,-0.0078,-0.0065,-0.0085,-0.0096,-0.0154,-0.0176,-0.0207,-0.0226,-0.0241,-0.0213,-0.0245,-0.021,-0.0159,-0.0196,-0.0196,-0.0196,-0.0217,-0.0219,-0.019,-0.019,-0.019,0,-0.0119,-0.012,-0.013,-0.0098,-0.0077,-0.0077,-0.0042,-0.0049,-0.0057,-0.0069,-0.0099,-0.0153,-0.0184,-0.0193,-0.0192,-0.0203,-0.023,-0.0186,-0.0193,-0.0194,-0.0194,-0.0216,-0.0219,-0.0188,-0.0189,-0.0189,-0.0189,0,-0.0075,-0.0072,-0.0048,-0.0036,-0.0015,0.0031,0.0028,0.0028,-0.0003,-0.0015,-0.0039,-0.0085,-0.0108,-0.0117,-0.0154,-0.0156,-0.0177,-0.0203,-0.0214,-0.0192,-0.0215,-0.0219,-0.0186,-0.0187,-0.0187,-0.0188,0,0,-0.0058,-0.0032,-0.002,-0.0004,0.0025,0.0055,0.0055,0.0065,0.0067,0.0042,0.0039,-0.001,-0.0027,-0.0042,-0.0076,-0.01,-0.0136,-0.0147,-0.0149,-0.0178,-0.0216,-0.0233,-0.0239,-0.018,-0.018,-0.018,-0.0231,0,-0.0013,0.0036,0.0035,0.0091,0.0121,0.0118,0.0119,0.0122,0.0106,0.0103,0.0066,0.0047,0.0001,-0.0009,-0.004,-0.0116,-0.0144,-0.0119,-0.0222,-0.0224,-0.0253,-0.0243,-0.0225,-0.0269,-0.0234,-0.0235,-0.0235,0,0.0044,0.0062,0.011,0.0141,0.0155,0.0178,0.0191,0.0195,0.0185,0.0174,0.0163,0.0128,0.0101,0.0049,-0.0047,-0.0036,-0.0118,-0.0179,-0.0183,-0.0206,-0.0247,-0.0285,-0.0277,-0.031,-0.0241,-0.024,-0.024,0,0.0076,0.0126,0.0153,0.0173,0.0199,0.021,0.0216,0.0216,0.0223,0.0221,0.0239,0.0192,0.0178,0.0073,-0.0036,-0.0056,-0.015,-0.0193,-0.0281,-0.0283,-0.0287,-0.0289,-0.0331,-0.0271,-0.0271,-0.0271,-0.0271,0,0.0132,0.0167,0.0171,0.02,0.0235,0.0238,0.0278,0.0276,0.0286,0.032,0.0281,0.0306,0.0177,0.0114,-0.0009,-0.0139,-0.013,-0.0266,-0.0298,-0.0277,-0.0277,-0.0322,-0.0334,-0.0273,-0.0272,-0.0272,-0.0272,0,0.0173,0.0181,0.0218,0.024,0.0256,0.0274,0.0317,0.0346,0.0351,0.0397,0.0398,0.0378,0.0301,0.0176,0.0018,-0.0092,-0.0291,-0.028,-0.0235,-0.0261,-0.0386,-0.0396,-0.0664,-0.07,-0.0389,-0.039,-0.039,0,0.0193,0.0218,0.0246,0.0273,0.0288,0.0325,0.0359,0.0371,0.0409,0.0451,0.0481,0.0433,0.0433,0.0221,-0.0007,-0.0212,-0.0313,-0.0325,-0.0362,-0.038,-0.0415,-0.0602,-0.0625,-0.0357,-0.0357,-0.0358,-0.0358,0,0.0231,0.0236,0.0258,0.0313,0.0353,0.0408,0.0459,0.0498,0.0526,0.0583,0.0643,0.0645,0.0447,0.0295,0.0018,-0.0166,-0.0396,-0.0338,-0.0373,-0.0399,-0.059,-0.0642,-0.0325,-0.036,-0.036,-0.036,-0.036,-0.036,0.0243,0.0268,0.0301,0.0355,0.0407,0.0487,0.0555,0.0625,0.0707,0.0831,0.0799,0.089,0.066,0.0281,0.0007,-0.0377,-0.0462,-0.045,-0.0462,-0.0656,-0.069,-0.0369,-0.0433,-0.0433,-0.0433,-0.0433,-0.0433,0,0.0245,0.0293,0.0354,0.0419,0.0492,0.0518,0.0626,0.0717,0.0848,0.0989,0.1077,0.1103,0.0806,0.044,-0.0062,-0.0364,-0.0638,-0.0523,-0.0733,-0.0746,-0.0448,-0.0437,-0.0484,-0.0484,-0.0484,-0.0484,-0.0484,-0.0483,0.0249,0.0308,0.0353,0.0479,0.0544,0.0668,0.0744,0.089,0.1025,0.1272,0.1419,0.1489,0.134,0.0494,-0.0117,-0.035,-0.0631,-0.0822,-0.0879,-0.0569,-0.0563,-0.0557,-0.055,-0.0619,-0.0619,-0.1232,-0.1236,-0.1239]}],[{"header":{"parameterUnit":"m.s-1","parameterCategory":2,"la1":30.2991,"la2":30.254,"lo1":-89.0895,"lo2":-89.0444,"dy":0.0017,"dx":0.0017,"nx":28,"ny":28,"refTime":"2023-06-26T21:00:00:Z","depth":"2","parameterNumber":2,"parameterNumberName":"U-component_of_CURRENTS"},"data":[0,0,0,0,0,0,0,0,0,0,0,0,0,0,0,0,0,0,0,0,0,0,0,0,0,0,0,0,0,0,0,0,0,0,0,0,0,0,0,0,0,0,0,0,0,0,0,0,0,0,0,0,0,0,0,0,0,0,-0.0978,-0.0979,0,-0.0968,-0.0967,-0.0966,-0.0898,-0.0897,-0.0897,-0.0897,-0.0845,-0.0844,-0.0843,0,0,0,0,0,0,0,0,0,0,0,0,0,-0.0783,-0.0786,-0.0978,-0.0979,-0.098,-0.0968,-0.0967,-0.0965,-0.0898,-0.0897,-0.0897,-0.0897,-0.0846,-0.0844,-0.0843,0,0,0,0,0,0,0,0,0,0,0,0,0,-0.0816,-0.0788,-0.0977,-0.0956,-0.0955,-0.0969,-0.0967,-0.0965,-0.0898,-0.0897,-0.0897,-0.0897,-0.0846,-0.0844,-0.0843,-0.084,0,0,-0.0838,-0.0837,0,0,0,0,0,0,0,0,-0.0814,-0.0821,-0.0958,-0.0958,-0.0957,-0.0947,-0.088,-0.0926,-0.0898,-0.0903,-0.0897,-0.0896,-0.0886,-0.0881,-0.0859,-0.0838,-0.0836,-0.0838,-0.0837,-0.0836,-0.0835,0,0,0,0,0,0,0,-0.0812,-0.082,-0.0958,-0.096,-0.0959,-0.0896,-0.0899,-0.0887,-0.0884,-0.0903,-0.0902,-0.0925,-0.0883,-0.086,-0.0857,-0.0835,-0.0838,-0.0836,-0.0835,-0.0834,-0.076,-0.0759,0,0,0,0,0,0,-0.0854,-0.082,-0.0959,-0.096,-0.09,-0.0901,-0.0905,-0.0938,-0.0885,-0.0882,-0.0926,-0.0922,-0.0863,-0.0859,-0.0855,-0.0775,-0.0836,-0.0834,-0.0833,-0.0761,-0.076,-0.0759,0,0,0,0,0,0,-0.0849,-0.0866,-0.096,-0.09,-0.091,-0.0908,-0.0944,-0.0939,-0.0843,-0.0906,-0.0898,-0.083,-0.0863,-0.0858,-0.0797,-0.0775,-0.0833,-0.0832,-0.0762,-0.0761,-0.0759,-0.0662,0,0,0,0,0,0,-0.0844,-0.0865,-0.0815,-0.0904,-0.0915,-0.0947,-0.0946,-0.0939,-0.0871,-0.0863,-0.0823,-0.0822,-0.0862,-0.08,-0.0796,-0.0774,-0.0831,-0.0763,-0.0762,-0.076,-0.0666,-0.0657,-0.065,0,0,0,0,0,-0.0837,-0.0798,-0.0814,-0.0827,-0.0878,-0.0948,-0.0944,-0.093,-0.0866,-0.0833,-0.0794,-0.0819,-0.0787,-0.0796,-0.0792,-0.077,-0.0764,-0.0762,-0.076,-0.067,-0.0659,-0.065,0,0,0,0,0,0,-0.0683,-0.0793,-0.081,-0.0803,-0.0865,-0.0942,-0.0898,-0.0874,-0.0807,-0.0772,-0.0784,-0.0782,-0.0737,-0.0754,-0.0763,-0.0747,-0.0789,-0.0785,-0.0722,-0.0712,-0.0703,-0.0646,-0.0829,0,0,0,0,0,-0.0637,-0.0635,-0.0755,-0.0742,-0.0778,-0.0809,-0.0797,-0.0808,-0.081,-0.0773,-0.0706,-0.069,-0.0737,-0.0717,-0.0732,-0.0689,-0.0684,-0.0682,-0.0673,-0.0666,-0.0619,-0.064,-0.0628,-0.0752,-0.0752,-0.0752,0,0,-0.0575,-0.0635,-0.0626,-0.0706,-0.0747,-0.0775,-0.0796,-0.0798,-0.0795,-0.0782,-0.0647,-0.0639,-0.0719,-0.0702,-0.0683,-0.07,-0.0618,-0.0663,-0.0656,-0.0612,-0.0636,-0.0624,-0.0613,-0.075,-0.0751,-0.0751,0,0,-0.0528,-0.0519,-0.0535,-0.0549,-0.0621,-0.0678,-0.0662,-0.0671,-0.0654,-0.0609,-0.0597,-0.0541,-0.0552,-0.0575,-0.0626,-0.0566,-0.0579,-0.0578,-0.0475,-0.0497,-0.0487,-0.0477,-0.0405,-0.039,-0.0568,-0.0568,-0.0567,0,-0.0467,-0.0507,-0.0541,-0.0549,-0.0568,-0.0625,-0.0654,-0.0654,-0.0602,-0.059,-0.0571,-0.0501,-0.0523,-0.0543,-0.0517,-0.0546,-0.0521,-0.0512,-0.0484,-0.0475,-0.0468,-0.0396,-0.0381,-0.0563,-0.0563,-0.0564,-0.0564,0,-0.0477,-0.0442,-0.0452,-0.0505,-0.0499,-0.0539,-0.0599,-0.0531,-0.0517,-0.0524,-0.0473,-0.0455,-0.0408,-0.0427,-0.0461,-0.04,-0.0384,-0.0478,-0.0505,-0.0449,-0.0377,-0.0363,-0.0555,-0.0557,-0.0559,-0.056,0,0,-0.0482,-0.0502,-0.0439,-0.0467,-0.0489,-0.0509,-0.05,-0.0574,-0.0527,-0.0464,-0.0417,-0.0423,-0.0312,-0.0349,-0.0323,-0.0309,-0.0209,-0.0327,-0.0331,-0.024,-0.0165,-0.0038,-0.0011,-0.0299,-0.0298,-0.0296,-0.0118,0,-0.0512,-0.0524,-0.0504,-0.0467,-0.0523,-0.0513,-0.0487,-0.0483,-0.05,-0.0417,-0.044,-0.0375,-0.0334,-0.0256,-0.0229,-0.0235,-0.0174,-0.0242,-0.0242,-0.0239,-0.0126,0.0008,-0.0195,-0.0043,-0.0104,-0.0102,-0.01,0,-0.0487,-0.0525,-0.0488,-0.0514,-0.0523,-0.0471,-0.0439,-0.0417,-0.0375,-0.0368,-0.0281,-0.0258,-0.0152,-0.0167,-0.0072,-0.011,-0.0079,-0.0092,-0.009,0.0012,-0.0087,-0.0121,-0.0016,-0.0077,-0.0079,-0.0081,-0.0082,0,-0.0446,-0.0483,-0.0459,-0.0432,-0.0439,-0.0405,-0.0434,-0.0365,-0.0335,-0.0265,-0.0198,-0.0134,-0.0026,-0.0031,0.0047,-0.0018,0.0121,-0.0021,0.0138,0.0148,-0.0027,-0.0033,0.0054,0.0054,0.0053,0.0053,0.0052,0,-0.0488,-0.0444,-0.042,-0.0355,-0.0365,-0.0339,-0.026,-0.028,-0.0196,-0.0103,-0.0084,0.0038,0.0017,0.0097,0.0088,0.0234,0.0166,0.0238,0.0213,0.0011,0.0005,-0.0057,-0.0072,0.0059,0.0058,0.0057,0.0055,0,-0.0448,-0.0381,-0.0302,-0.0268,-0.0305,-0.0228,-0.0231,-0.0165,-0.0069,0.0064,0.0107,0.0196,0.0339,0.0341,0.0364,0.0359,0.039,0.0452,0.0296,0.0254,0.042,0.0407,0.0623,0.0629,0.0634,0.0639,0.0642,0,-0.0438,-0.0374,-0.021,-0.0138,-0.0133,-0.0095,-0.0086,-0.0083,-0.002,0.019,0.0244,0.0435,0.0553,0.0685,0.0653,0.0686,0.0644,0.0568,0.0401,0.0531,0.0484,0.0462,0.0443,0.0209,0.0209,0.0209,0.0209,0,-0.0451,-0.0257,-0.0255,-0.0109,-0.0021,0.0001,-0.0028,0.003,0.0152,0.0285,0.049,0.0597,0.0758,0.074,0.0816,0.0749,0.0526,0.0579,0.0706,0.0129,0.0163,0.011,0.0099,0.0208,0.0208,0.0208,0.0208,0.0208,-0.0389,-0.0385,-0.0238,-0.0141,-0.0034,0.0071,0.0096,0.0132,0.0275,0.0427,0.0532,0.0673,0.0607,0.0674,0.0674,0.0682,0.0704,0.0544,0.0533,0.0524,0.0477,0.0521,0.063,0.0632,0.0634,0.0636,0.0638,0,-0.0365,-0.0405,-0.0341,-0.0158,-0.0046,0.0044,0.012,0.0171,0.0348,0.0449,0.0573,0.048,0.045,0.051,0.0542,0.0542,0.0367,0.048,0.0215,0.0215,0.0215,0.0142,0.0212,0.0212,0.0212,0.0212,0,0,-0.0366,-0.0339,-0.0363,-0.0189,-0.0062,0.0112,0.0214,0.0267,0.0337,0.0449,0.0525,0.0359,0.046,0.0336,0.0266,0.0331,0.0257,0.0257,0.0571,0.0257,0.0259,0.0202,0.0087,0,0,0,0,0]},{"header":{"parameterUnit":"m.s-1","parameterCategory":2,"la1":30.2991,"la2":30.254,"lo1":-89.0895,"lo2":-89.0444,"dy":0.0017,"dx":0.0017,"nx":28,"ny":28,"refTime":"2023-06-26T21:00:00:Z","depth":"2","parameterNumber":3,"parameterNumberName":"V-component_of_CURRENTS"},"data":[0,0,0,0,0,0,0,0,0,0,0,0,0,0,0,0,0,0,0,0,0,0,0,0,0,0,0,0,0,0,0,0,0,0,0,0,0,0,0,0,0,0,0,0,0,0,0,0,0,0,0,0,0,0,0,0,0,0,-0.0244,-0.0245,0,-0.0244,-0.0244,-0.0243,-0.03,-0.0302,-0.0304,-0.0306,-0.0313,-0.0311,-0.0309,0,0,0,0,0,0,0,0,0,0,0,0,0,-0.016,-0.0161,-0.0244,-0.0245,-0.0245,-0.0244,-0.0244,-0.0243,-0.0299,-0.0302,-0.0305,-0.0307,-0.0313,-0.0311,-0.0309,0,0,0,0,0,0,0,0,0,0,0,0,0,-0.0175,-0.0162,-0.0244,-0.0279,-0.0282,-0.0244,-0.0244,-0.0243,-0.0299,-0.0302,-0.0305,-0.0308,-0.0314,-0.0312,-0.0309,-0.0228,0,0,-0.0301,-0.0299,0,0,0,0,0,0,0,0,-0.0174,-0.0177,-0.0273,-0.0276,-0.028,-0.0282,-0.0217,-0.0241,-0.0298,-0.0285,-0.0306,-0.031,-0.0305,-0.0303,-0.0286,-0.0228,-0.0228,-0.03,-0.0299,-0.0297,-0.0297,0,0,0,0,0,0,0,-0.0173,-0.0177,-0.0237,-0.0274,-0.0278,-0.0249,-0.0255,-0.022,-0.0272,-0.0286,-0.0292,-0.0303,-0.0307,-0.0288,-0.0287,-0.0228,-0.03,-0.0298,-0.0296,-0.0295,-0.0238,-0.0238,0,0,0,0,0,0,-0.0191,-0.0177,-0.0237,-0.0238,-0.0242,-0.0249,-0.0256,-0.0272,-0.0272,-0.0277,-0.03,-0.0305,-0.0292,-0.029,-0.0287,-0.0296,-0.0298,-0.0295,-0.0293,-0.0237,-0.0238,-0.0238,0,0,0,0,0,0,-0.0189,-0.0197,-0.0237,-0.0212,-0.0217,-0.0249,-0.0266,-0.0271,-0.0282,-0.0284,-0.0288,-0.0311,-0.0294,-0.0291,-0.0298,-0.0294,-0.0294,-0.0291,-0.0237,-0.0237,-0.0238,-0.0247,0,0,0,0,0,0,-0.0187,-0.0196,-0.021,-0.0214,-0.0219,-0.0217,-0.0264,-0.0268,-0.0285,-0.0293,-0.0293,-0.0296,-0.0296,-0.0303,-0.0296,-0.029,-0.0289,-0.0237,-0.0237,-0.0238,-0.0247,-0.0248,-0.0249,0,0,0,0,0,-0.0184,-0.0208,-0.0211,-0.0218,-0.0239,-0.0216,-0.0214,-0.0242,-0.0283,-0.0268,-0.0302,-0.0298,-0.0299,-0.03,-0.0292,-0.0286,-0.0237,-0.0237,-0.0238,-0.0246,-0.0248,-0.0249,0,0,0,0,0,0,-0.0189,-0.0216,-0.022,-0.0254,-0.0231,-0.0229,-0.0234,-0.0245,-0.0254,-0.0266,-0.0291,-0.0294,-0.0301,-0.0288,-0.0289,-0.0272,-0.0268,-0.0267,-0.0278,-0.0279,-0.028,-0.0266,-0.0287,0,0,0,0,0,-0.019,-0.0214,-0.021,-0.0231,-0.0226,-0.0224,-0.0224,-0.022,-0.0232,-0.024,-0.0266,-0.0281,-0.0284,-0.0283,-0.0277,-0.0252,-0.0257,-0.0245,-0.0246,-0.0247,-0.0232,-0.0285,-0.029,-0.0238,-0.0238,-0.0238,0,0,-0.02,-0.0218,-0.0232,-0.0232,-0.0225,-0.0206,-0.0231,-0.0212,-0.0217,-0.0234,-0.0274,-0.0281,-0.0281,-0.0275,-0.0275,-0.0269,-0.0257,-0.0247,-0.0248,-0.0232,-0.0286,-0.0291,-0.0295,-0.0239,-0.0239,-0.0239,0,0,-0.0206,-0.0239,-0.024,-0.022,-0.0197,-0.0192,-0.0192,-0.0186,-0.021,-0.0217,-0.0249,-0.0259,-0.027,-0.0268,-0.0269,-0.0261,-0.0266,-0.0263,-0.0245,-0.0298,-0.0303,-0.0308,-0.0291,-0.0294,-0.0257,-0.0257,-0.0257,0,-0.0209,-0.0218,-0.023,-0.0209,-0.021,-0.0195,-0.0175,-0.0177,-0.0184,-0.0195,-0.0237,-0.0262,-0.0266,-0.0255,-0.0264,-0.0261,-0.0278,-0.0244,-0.0301,-0.0305,-0.031,-0.0292,-0.0295,-0.0258,-0.0257,-0.0257,-0.0257,0,-0.0191,-0.0197,-0.0196,-0.018,-0.0175,-0.0147,-0.015,-0.0149,-0.019,-0.0196,-0.0217,-0.0235,-0.0247,-0.0252,-0.0258,-0.0272,-0.0268,-0.0304,-0.03,-0.0316,-0.0295,-0.0298,-0.0258,-0.0258,-0.0258,-0.0258,0,0,-0.0198,-0.0186,-0.0185,-0.0168,-0.0154,-0.0138,-0.015,-0.014,-0.0148,-0.0172,-0.0203,-0.0212,-0.022,-0.022,-0.0226,-0.0262,-0.0301,-0.0295,-0.0298,-0.0279,-0.038,-0.03,-0.0295,-0.0371,-0.0373,-0.0374,-0.0342,0,-0.0172,-0.0142,-0.0154,-0.0126,-0.0108,-0.0109,-0.0129,-0.0116,-0.0142,-0.0165,-0.0176,-0.0199,-0.021,-0.0217,-0.0255,-0.0297,-0.0315,-0.0303,-0.0365,-0.0365,-0.0296,-0.0299,-0.035,-0.0321,-0.0345,-0.0346,-0.0346,0,-0.014,-0.0128,-0.01,-0.0098,-0.0094,-0.0083,-0.0096,-0.0102,-0.0113,-0.0141,-0.0149,-0.0166,-0.018,-0.0224,-0.028,-0.0282,-0.0321,-0.0357,-0.0358,-0.028,-0.0292,-0.0316,-0.0326,-0.0351,-0.0351,-0.0351,-0.035,0,-0.0119,-0.0097,-0.0082,-0.0071,-0.0059,-0.0061,-0.0074,-0.0085,-0.0089,-0.0117,-0.0114,-0.0151,-0.0166,-0.0241,-0.0283,-0.0304,-0.036,-0.0402,-0.0349,-0.0341,-0.0388,-0.0383,-0.0453,-0.0453,-0.0454,-0.0454,-0.0454,0,-0.0086,-0.0058,-0.0063,-0.0038,-0.0024,-0.0042,-0.0031,-0.005,-0.0067,-0.0039,-0.0091,-0.0067,-0.0187,-0.0215,-0.0277,-0.0296,-0.0353,-0.0326,-0.0336,-0.0386,-0.0381,-0.0419,-0.0416,-0.0452,-0.0453,-0.0453,-0.0453,0,-0.0026,-0.0032,0.0001,-0.0001,0.0,0.0009,0.0004,0.0025,-0.0011,0.002,0.0016,-0.0018,-0.0051,-0.0131,-0.0237,-0.0258,-0.031,-0.0304,-0.0307,-0.0317,-0.0249,-0.0247,-0.0238,-0.0235,-0.0232,-0.023,-0.0228,0,0.0015,0.0038,0.0038,0.0058,0.0068,0.0079,0.01,0.0056,0.0078,0.0086,0.0115,0.0088,0.0133,0.0038,-0.0086,-0.0161,-0.0222,-0.023,-0.0274,-0.022,-0.0232,-0.0233,-0.0234,-0.0334,-0.0333,-0.0333,-0.0332,0,0.0106,0.01,0.0126,0.0158,0.018,0.0202,0.0217,0.0231,0.0213,0.0269,0.0338,0.0376,0.0272,0.016,0.0029,-0.0033,-0.0226,-0.0213,-0.0211,-0.036,-0.0304,-0.0317,-0.0317,-0.0327,-0.0328,-0.0328,-0.0328,-0.0329,0.0155,0.0208,0.0235,0.0275,0.03,0.0333,0.0375,0.0415,0.0484,0.0519,0.0508,0.0515,0.0276,0.0105,0.001,-0.0107,-0.0097,-0.0189,-0.0196,-0.0202,-0.0198,-0.0139,-0.0127,-0.0126,-0.0126,-0.0125,-0.0125,0,0.021,0.0293,0.0356,0.0399,0.0462,0.044,0.0484,0.0552,0.0687,0.0604,0.0664,0.0412,0.0298,0.0079,-0.0071,-0.0128,-0.0182,-0.0175,-0.028,-0.0284,-0.0288,-0.0293,-0.0245,-0.0245,-0.0245,-0.0245,0,0,0.0262,0.0341,0.0406,0.0545,0.0593,0.069,0.0725,0.0823,0.0791,0.0705,0.0589,0.0444,0.022,0.0032,-0.0105,-0.0156,-0.019,-0.0163,-0.0066,-0.0181,-0.0183,-0.0303,-0.0314,0,0,0,0,0]}],[{"header":{"parameterUnit":"m.s-1","parameterCategory":2,"la1":30.2991,"la2":30.254,"lo1":-89.0895,"lo2":-89.0444,"dy":0.0017,"dx":0.0017,"nx":28,"ny":28,"refTime":"2023-06-26T21:00:00:Z","depth":"4","parameterNumber":2,"parameterNumberName":"U-component_of_CURRENTS"},"data":[0,0,0,0,0,0,0,0,0,0,0,0,0,0,0,0,0,0,0,0,0,0,0,0,0,0,0,0,0,0,0,0,0,0,0,0,0,0,0,0,0,0,0,0,0,0,0,0,0,0,0,0,0,0,0,0,0,0,-0.044,-0.044,0,-0.0488,-0.0489,-0.049,-0.0523,-0.0523,-0.0523,-0.0523,-0.0577,-0.0578,-0.0579,0,0,0,0,0,0,0,0,0,0,0,0,0,-0.0387,-0.0388,-0.044,-0.044,-0.0441,-0.0488,-0.0489,-0.049,-0.0523,-0.0523,-0.0523,-0.0523,-0.0576,-0.0578,-0.058,0,0,0,0,0,0,0,0,0,0,0,0,0,-0.0422,-0.0388,-0.044,-0.0461,-0.0463,-0.0488,-0.0489,-0.049,-0.0523,-0.0523,-0.0523,-0.0523,-0.0576,-0.0578,-0.058,-0.0594,0,0,-0.0587,-0.0587,0,0,0,0,0,0,0,0,-0.042,-0.0425,-0.0457,-0.0459,-0.0462,-0.0497,-0.049,-0.0524,-0.0523,-0.0503,-0.0523,-0.0523,-0.0549,-0.0553,-0.0566,-0.0596,-0.0599,-0.0587,-0.0588,-0.0589,-0.059,0,0,0,0,0,0,0,-0.0418,-0.0423,-0.0462,-0.0457,-0.046,-0.0471,-0.0476,-0.0497,-0.0528,-0.0505,-0.0506,-0.0507,-0.055,-0.0564,-0.0568,-0.0599,-0.0587,-0.0589,-0.059,-0.0591,-0.0672,-0.0673,0,0,0,0,0,0,-0.0406,-0.042,-0.046,-0.0463,-0.0437,-0.0471,-0.0478,-0.0488,-0.0527,-0.0532,-0.0507,-0.0509,-0.056,-0.0565,-0.057,-0.0619,-0.0589,-0.0591,-0.0592,-0.0671,-0.0672,-0.0673,0,0,0,0,0,0,-0.0405,-0.0409,-0.0458,-0.044,-0.0446,-0.0472,-0.0484,-0.0489,-0.052,-0.0529,-0.0535,-0.0534,-0.056,-0.0567,-0.0601,-0.062,-0.0592,-0.0594,-0.067,-0.0672,-0.0673,-0.0697,0,0,0,0,0,0,-0.0403,-0.0409,-0.0413,-0.0439,-0.0447,-0.0475,-0.0483,-0.049,-0.0518,-0.0521,-0.0554,-0.0558,-0.0561,-0.0598,-0.0603,-0.0622,-0.0596,-0.0669,-0.0671,-0.0673,-0.0695,-0.0699,-0.0703,0,0,0,0,0,-0.0401,-0.0404,-0.0413,-0.0417,-0.0452,-0.0475,-0.048,-0.05,-0.0519,-0.053,-0.0558,-0.0558,-0.0611,-0.06,-0.0606,-0.0627,-0.0669,-0.0671,-0.0672,-0.0694,-0.0698,-0.0702,0,0,0,0,0,0,-0.0391,-0.0408,-0.0419,-0.043,-0.0451,-0.0479,-0.049,-0.0512,-0.0545,-0.0551,-0.0572,-0.0578,-0.0604,-0.0618,-0.0606,-0.0654,-0.0639,-0.0642,-0.0653,-0.0658,-0.0661,-0.0681,-0.0597,0,0,0,0,0,-0.0387,-0.0397,-0.0417,-0.0431,-0.0439,-0.0472,-0.0486,-0.05,-0.053,-0.0546,-0.0576,-0.0602,-0.0615,-0.064,-0.0646,-0.0688,-0.0691,-0.0704,-0.0708,-0.071,-0.0731,-0.0743,-0.0749,-0.068,-0.068,-0.068,0,0,-0.0395,-0.0401,-0.0412,-0.0429,-0.0451,-0.0468,-0.0482,-0.0505,-0.0524,-0.0545,-0.0593,-0.0607,-0.0624,-0.0654,-0.067,-0.0675,-0.073,-0.0713,-0.0715,-0.0735,-0.0746,-0.0752,-0.0759,-0.0681,-0.0681,-0.0681,0,0,-0.04,-0.0416,-0.0418,-0.0435,-0.0453,-0.0471,-0.0482,-0.0521,-0.054,-0.0576,-0.0593,-0.0626,-0.0664,-0.0683,-0.0695,-0.0728,-0.0733,-0.0736,-0.0793,-0.0803,-0.0809,-0.0814,-0.0817,-0.0822,-0.0757,-0.0757,-0.0757,0,-0.0392,-0.0405,-0.0425,-0.0432,-0.0445,-0.0477,-0.0488,-0.0515,-0.0564,-0.058,-0.0588,-0.0653,-0.0671,-0.0712,-0.074,-0.0735,-0.0749,-0.0772,-0.0808,-0.0813,-0.0818,-0.082,-0.0825,-0.0758,-0.0758,-0.0758,-0.0758,0,-0.0403,-0.0411,-0.0417,-0.0435,-0.046,-0.047,-0.0505,-0.0538,-0.0567,-0.0591,-0.0632,-0.0666,-0.0712,-0.0724,-0.0755,-0.0811,-0.081,-0.0792,-0.0795,-0.0827,-0.0826,-0.0831,-0.076,-0.076,-0.0759,-0.0759,0,0,-0.0383,-0.0406,-0.0411,-0.0413,-0.0455,-0.0472,-0.0514,-0.0545,-0.0561,-0.0618,-0.0645,-0.071,-0.0746,-0.0766,-0.0803,-0.0848,-0.09,-0.0869,-0.0868,-0.087,-0.0935,-0.0737,-0.0724,-0.09,-0.0901,-0.0902,-0.0916,0,-0.0372,-0.0365,-0.0395,-0.0415,-0.042,-0.0466,-0.0504,-0.0547,-0.057,-0.0605,-0.0657,-0.0698,-0.0754,-0.0793,-0.0844,-0.0878,-0.0919,-0.0898,-0.0908,-0.0908,-0.0726,-0.0724,-0.0907,-0.092,-0.0922,-0.0922,-0.0923,0,-0.0372,-0.0364,-0.0365,-0.0391,-0.0399,-0.0426,-0.0473,-0.0514,-0.0572,-0.0596,-0.0658,-0.0694,-0.0795,-0.0815,-0.0912,-0.0905,-0.0943,-0.0964,-0.0964,-0.0779,-0.0719,-0.0886,-0.0933,-0.0932,-0.0931,-0.0931,-0.093,0,-0.0344,-0.0348,-0.0338,-0.035,-0.0391,-0.0411,-0.0452,-0.0513,-0.0539,-0.0612,-0.0631,-0.0718,-0.077,-0.084,-0.087,-0.0931,-0.0912,-0.098,-0.0831,-0.0818,-0.0985,-0.098,-0.1037,-0.1037,-0.1037,-0.1037,-0.1037,0,-0.0313,-0.0312,-0.032,-0.0321,-0.0334,-0.0393,-0.0416,-0.0469,-0.0524,-0.0546,-0.0645,-0.0638,-0.0788,-0.0778,-0.0841,-0.0798,-0.0877,-0.0838,-0.0804,-0.0993,-0.0988,-0.0988,-0.0982,-0.1038,-0.1037,-0.1037,-0.1037,0,-0.0293,-0.0291,-0.0286,-0.0308,-0.0322,-0.0347,-0.0405,-0.0413,-0.0492,-0.052,-0.0561,-0.0609,-0.062,-0.0661,-0.0724,-0.0725,-0.0714,-0.0668,-0.0817,-0.079,-0.0655,-0.0651,-0.0607,-0.06,-0.0594,-0.0589,-0.0585,0,-0.0278,-0.0273,-0.0279,-0.0271,-0.0278,-0.0314,-0.0337,-0.0411,-0.0413,-0.0463,-0.0456,-0.0475,-0.0502,-0.0412,-0.0468,-0.0502,-0.0508,-0.051,-0.0675,-0.0638,-0.061,-0.0615,-0.0619,-0.0575,-0.0574,-0.0572,-0.0571,0,-0.026,-0.0263,-0.0251,-0.024,-0.0244,-0.0243,-0.0271,-0.0264,-0.0343,-0.0405,-0.0364,-0.036,-0.0316,-0.0333,-0.0292,-0.0328,-0.0525,-0.0451,-0.047,-0.0626,-0.0599,-0.0579,-0.0589,-0.055,-0.0553,-0.0555,-0.0556,0,-0.0255,-0.0234,-0.0219,-0.0206,-0.0192,-0.016,-0.0185,-0.0181,-0.0208,-0.0284,-0.0229,-0.0243,-0.0279,-0.0229,-0.0177,-0.018,-0.0285,-0.0354,-0.0381,-0.0404,-0.0322,-0.0257,-0.0068,0,0,0,0,0,-0.0246,-0.0213,-0.0187,-0.0146,-0.0118,-0.0115,-0.0129,-0.0154,-0.0212,-0.0182,-0.0224,-0.0183,-0.0154,-0.0114,-0.0099,-0.0105,-0.0272,-0.0083,-0.0362,-0.0437,-0.046,-0.0378,0,0,0,0,0,0,-0.023,-0.0209,-0.0177,-0.0096,-0.005,-0.0023,-0.0023,-0.0063,-0.0046,-0.0113,-0.0085,-0.0156,-0.0111,-0.0166,-0.0089,-0.0088,-0.0257,-0.0095,-0.0094,-0.0423,-0.0445,-0.0464,-0.0387,0,0,0,0,0]},{"header":{"parameterUnit":"m.s-1","parameterCategory":2,"la1":30.2991,"la2":30.254,"lo1":-89.0895,"lo2":-89.0444,"dy":0.0017,"dx":0.0017,"nx":28,"ny":28,"refTime":"2023-06-26T21:00:00:Z","depth":"4","parameterNumber":3,"parameterNumberName":"V-component_of_CURRENTS"},"data":[0,0,0,0,0,0,0,0,0,0,0,0,0,0,0,0,0,0,0,0,0,0,0,0,0,0,0,0,0,0,0,0,0,0,0,0,0,0,0,0,0,0,0,0,0,0,0,0,0,0,0,0,0,0,0,0,0,0,-0.0345,-0.0345,0,-0.0376,-0.0376,-0.0377,-0.0403,-0.0403,-0.0403,-0.0403,-0.0429,-0.043,-0.043,0,0,0,0,0,0,0,0,0,0,0,0,0,-0.0312,-0.0312,-0.0345,-0.0345,-0.0346,-0.0376,-0.0376,-0.0377,-0.0403,-0.0403,-0.0403,-0.0403,-0.0429,-0.043,-0.043,0,0,0,0,0,0,0,0,0,0,0,0,0,-0.0333,-0.0313,-0.0345,-0.0362,-0.0363,-0.0376,-0.0376,-0.0377,-0.0403,-0.0403,-0.0403,-0.0404,-0.0429,-0.043,-0.043,-0.0428,0,0,-0.0433,-0.0433,0,0,0,0,0,0,0,0,-0.0332,-0.0335,-0.0359,-0.0361,-0.0363,-0.0385,-0.0374,-0.0394,-0.0403,-0.0388,-0.0403,-0.0404,-0.0413,-0.0415,-0.0422,-0.0429,-0.043,-0.0433,-0.0433,-0.0433,-0.0434,0,0,0,0,0,0,0,-0.0331,-0.0333,-0.0358,-0.0359,-0.0361,-0.0369,-0.0372,-0.0378,-0.0399,-0.039,-0.0392,-0.0394,-0.0415,-0.0421,-0.0422,-0.0431,-0.0433,-0.0433,-0.0434,-0.0434,-0.0498,-0.0499,0,0,0,0,0,0,-0.0325,-0.0332,-0.0357,-0.0359,-0.0347,-0.0369,-0.0373,-0.0378,-0.0399,-0.0403,-0.0393,-0.0395,-0.0419,-0.0421,-0.0423,-0.0472,-0.0433,-0.0434,-0.0435,-0.0497,-0.0498,-0.05,0,0,0,0,0,0,-0.0324,-0.0327,-0.0356,-0.0345,-0.0349,-0.0369,-0.0375,-0.0379,-0.0398,-0.0402,-0.0406,-0.041,-0.042,-0.0422,-0.045,-0.0471,-0.0434,-0.0435,-0.0495,-0.0497,-0.0499,-0.0536,0,0,0,0,0,0,-0.0323,-0.0327,-0.033,-0.0345,-0.035,-0.0374,-0.0375,-0.0379,-0.0397,-0.04,-0.0417,-0.0419,-0.042,-0.0449,-0.0451,-0.0471,-0.0436,-0.0494,-0.0496,-0.0499,-0.0533,-0.0539,-0.0544,0,0,0,0,0,-0.0322,-0.0326,-0.033,-0.0333,-0.0354,-0.0374,-0.0378,-0.0393,-0.0398,-0.0411,-0.0429,-0.0419,-0.0466,-0.0451,-0.0453,-0.0474,-0.0493,-0.0496,-0.0498,-0.0531,-0.0538,-0.0544,0,0,0,0,0,0,-0.0313,-0.033,-0.0335,-0.0343,-0.0362,-0.0379,-0.0393,-0.04,-0.0423,-0.0429,-0.0434,-0.0438,-0.0468,-0.0468,-0.0452,-0.0501,-0.0478,-0.0481,-0.0502,-0.0509,-0.0514,-0.0524,-0.0436,0,0,0,0,0,-0.0312,-0.0322,-0.0339,-0.0348,-0.0361,-0.0379,-0.0389,-0.0399,-0.0419,-0.0431,-0.0446,-0.0464,-0.0479,-0.0492,-0.0504,-0.053,-0.052,-0.0546,-0.0551,-0.0556,-0.0566,-0.0571,-0.0577,-0.0509,-0.0509,-0.0509,0,0,-0.0311,-0.0321,-0.0326,-0.0347,-0.0366,-0.0387,-0.0388,-0.041,-0.0428,-0.0429,-0.0468,-0.048,-0.049,-0.0522,-0.0536,-0.0526,-0.0568,-0.0559,-0.0563,-0.0571,-0.0574,-0.0581,-0.0586,-0.0511,-0.0511,-0.051,0,0,-0.0315,-0.0327,-0.034,-0.036,-0.0387,-0.0397,-0.0406,-0.0435,-0.0453,-0.0484,-0.0492,-0.0523,-0.0546,-0.0565,-0.0573,-0.0615,-0.0593,-0.0618,-0.0657,-0.0662,-0.0667,-0.0672,-0.0656,-0.0659,-0.0625,-0.0625,-0.0625,0,-0.031,-0.033,-0.0347,-0.0371,-0.0391,-0.0405,-0.043,-0.0446,-0.048,-0.0504,-0.0502,-0.056,-0.0566,-0.061,-0.063,-0.0627,-0.0619,-0.0629,-0.0668,-0.0672,-0.0676,-0.0659,-0.0662,-0.0627,-0.0627,-0.0627,-0.0627,0,-0.0331,-0.0349,-0.0364,-0.0397,-0.0421,-0.0444,-0.0472,-0.0498,-0.0518,-0.054,-0.0592,-0.0609,-0.0648,-0.0654,-0.0656,-0.0698,-0.0679,-0.0668,-0.0648,-0.0685,-0.0665,-0.0667,-0.063,-0.063,-0.0629,-0.0628,0,0,-0.0319,-0.0364,-0.0375,-0.0393,-0.0439,-0.0459,-0.0498,-0.054,-0.0565,-0.0606,-0.0651,-0.069,-0.0711,-0.0723,-0.0733,-0.0744,-0.0761,-0.0727,-0.0726,-0.0705,-0.0759,-0.0684,-0.0679,-0.0757,-0.0758,-0.0759,-0.0728,0,-0.0332,-0.0369,-0.0397,-0.0439,-0.0463,-0.0498,-0.0534,-0.0576,-0.0603,-0.0648,-0.0686,-0.0732,-0.0733,-0.0759,-0.0773,-0.0766,-0.0771,-0.077,-0.0732,-0.0731,-0.0655,-0.0681,-0.0762,-0.073,-0.073,-0.0731,-0.0731,0,-0.0356,-0.0373,-0.0415,-0.0462,-0.048,-0.051,-0.0572,-0.0607,-0.067,-0.0699,-0.0755,-0.0777,-0.0828,-0.0811,-0.0823,-0.0822,-0.0801,-0.0786,-0.0784,-0.0705,-0.0661,-0.0689,-0.0734,-0.0734,-0.0734,-0.0734,-0.0733,0,-0.0347,-0.0393,-0.0423,-0.0443,-0.0496,-0.0531,-0.0571,-0.0633,-0.0665,-0.0745,-0.0774,-0.0827,-0.0856,-0.0853,-0.0825,-0.0832,-0.0806,-0.0806,-0.0717,-0.071,-0.0769,-0.0764,-0.0808,-0.0808,-0.0808,-0.0808,-0.0808,0,-0.0352,-0.0382,-0.0423,-0.044,-0.0492,-0.0539,-0.0591,-0.0645,-0.0703,-0.074,-0.0811,-0.0818,-0.0868,-0.0855,-0.0832,-0.077,-0.081,-0.0728,-0.0703,-0.0783,-0.0781,-0.0769,-0.0765,-0.0807,-0.0807,-0.0807,-0.0808,0,-0.0351,-0.0377,-0.0407,-0.0458,-0.0491,-0.0533,-0.0608,-0.0633,-0.0703,-0.075,-0.0785,-0.0825,-0.0805,-0.0814,-0.079,-0.0765,-0.072,-0.0684,-0.0755,-0.0733,-0.0622,-0.0621,-0.0602,-0.0599,-0.0597,-0.0595,-0.0593,0,-0.0354,-0.0368,-0.0421,-0.0446,-0.0477,-0.0537,-0.0581,-0.0647,-0.0657,-0.072,-0.0728,-0.0746,-0.0759,-0.0667,-0.0674,-0.0635,-0.0622,-0.0617,-0.0647,-0.0626,-0.0604,-0.0606,-0.0608,-0.0589,-0.0589,-0.0588,-0.0588,0,-0.0348,-0.0367,-0.0388,-0.0436,-0.0481,-0.0524,-0.0575,-0.0576,-0.0638,-0.0689,-0.0664,-0.0662,-0.0628,-0.0601,-0.0578,-0.0544,-0.064,-0.0593,-0.0598,-0.0627,-0.0611,-0.0592,-0.0596,-0.058,-0.0581,-0.0581,-0.0582,0,-0.0345,-0.0355,-0.0378,-0.0421,-0.0472,-0.0504,-0.0532,-0.0532,-0.0556,-0.0611,-0.0573,-0.0587,-0.0598,-0.0546,-0.0505,-0.0489,-0.0491,-0.0504,-0.0514,-0.0523,-0.0512,-0.0481,-0.0392,0,0,0,0,0,-0.0332,-0.0342,-0.0368,-0.0405,-0.0445,-0.0483,-0.0524,-0.0535,-0.0567,-0.0539,-0.0561,-0.0521,-0.0491,-0.0467,-0.0433,-0.0466,-0.0496,-0.0426,-0.0517,-0.0535,-0.0544,-0.0538,0,0,0,0,0,0,-0.0328,-0.0347,-0.0352,-0.0376,-0.0402,-0.0451,-0.048,-0.0507,-0.047,-0.05,-0.0463,-0.0499,-0.0446,-0.0501,-0.0424,-0.0423,-0.0473,-0.0423,-0.0422,-0.0529,-0.0538,-0.0545,-0.0542,0,0,0,0,0]}]]